loading
|

TITAN 3C TRANSTAGE DEB, 1682

Orbit data source: Space-Track

TITAN 3C TRANSTAGE DEB, 1682 is space debris in LEO originally from a launch on Fri, 15 Oct 1965 UTC launched from the Air Force Eastern Test Range (AFETR). Debris objects in space refer to the collection of defunct objects orbiting the Earth. Examples of debris include non-operational satellites, rocket bodies, and fragments generated from explosions, collisions, or faulty payload assembly.

Loading next visibility...
Next conjunction unknown
Loading greatness...
TITAN 3C TRANSTAGE DEB details
Identifier
1682, 1965-082AV
Orbit
LEO
Last TLE update8 hours ago
Origin
Flag of USUSAF SSD (US)
ManufacturerUnknown
MissionSpacecraft
Bus & MotorUnknown bus, Unknown motor
MassUnknown
Launch date (UTC)
1965-10-15 (59 years ago)
Launch vehicleUnknown
Launch site
Air Force Eastern Test Range (AFETR)
Object type
Payload
Rocket body
Debris
Shape & HBRUnknown
Radar Cross SectionMedium (>0.1 m² and <1 m²)

Expand to show TLE details & history

TLE from 8 hours ago
0 TITAN 3C TRANSTAGE DEB
1 01682U 65082AV  24286.47805425  .00008125  00000-0  12868-2 0  9998
2 01682  32.4108  71.7832 0051012 328.0445  31.7119 14.70386793100089
Epoch: 2024-10-12T11:28Z
Definitive object data (Epoch: 2024-10-12T11:28:23.887Z)
Latitude0.00001°
Longitude-121.84963°
Altitude628.023 km
Speed7.563 km/s
True Right ascension04h 47m 07s
True Declination0° 00' 00"
Sunlit
Object was in full shadow at TLE epoch
Predictive object data (real-time)
Latitude7.81955°
Longitude-111.46981°
Altitude631.709 km
Speed7.559 km/s
Apparent Right ascension04h 06m 53s
Apparent Declination-16° 10' 44"
Sunlit
Object is in full shadow
Predictive observer data (real-time)
Local Sidereal Time14:08:10
Azimuth304.081° NW
Elevation-54.963°
Doppler factor1
Orbital elements
Apogee699.321 km
Perigee627.48 km
Semi-major axis7,041.537 km
Eccentricity0.0051012
Inclination32.4108°
RAAN71.7832°
Arg. of periapsis328.0445°
True anomaly32.02084°
Mean anomaly31.7119°
Eccentric anomaly31.8662°
Mean motion3.67318 °/min
BSTAR0.0012868
Period98.01 mins
No data available

TITAN 3C TRANSTAGE DEB Visibility forecast

Observer location: 39.9160978°, -105.1181434

Span
Click to sort rows by Start time (UTC) header in descending order
Start Az.
Max El. time (UTC)
Max El. Az.
Max El.
End time (UTC)
End Az.
7 mins2024-10-13 13:47:10.332Z213.447° SW2024-10-13 13:51:10.332Z156.216° SSE20.702°2024-10-13 13:54:10.332Z115.209° SE
7 mins2024-10-13 15:31:10.332Z230.453° WSW2024-10-13 15:34:10.332Z172.982° S28.843°2024-10-13 15:38:10.332Z115.141° SE
7 mins2024-10-13 17:14:10.332Z241.781° WSW2024-10-13 17:17:10.332Z194.246° SSW24.638°2024-10-13 17:21:10.332Z136.836° SSE